Time,TemperatureF,DewpointF,PressureIn,WindDirection,WindDirectionDegrees,WindSpeedMPH,WindSpeedGustMPH,Humidity,HourlyPrecipIn,Conditions,Clouds,dailyrainin,SoftwareType,DateUTC
2013-07-06 00:02:00,78.1,72.5,30.36,WSW,247,0.0,1.0,83,0.00,,,0.00,meteohub,2013-07-06 04:02:00,
2013-07-06 00:12:00,78.1,72.9,30.36,WSW,247,0.0,2.0,84,0.00,,,0.00,meteohub,2013-07-06 04:12:00,
2013-07-06 00:22:00,78.1,72.9,30.36,WSW,247,0.0,2.0,84,0.00,,,0.00,meteohub,2013-07-06 04:22:00,
2013-07-06 00:32:00,78.1,73.2,30.36,WSW,247,0.0,2.0,85,0.00,,,0.00,meteohub,2013-07-06 04:32:00,
2013-07-06 00:42:00,78.1,73.6,30.36,WSW,247,0.0,1.0,86,0.00,,,0.00,meteohub,2013-07-06 04:42:00,
2013-07-06 00:52:00,78.1,73.6,30.37,WSW,247,0.0,2.0,86,0.00,,,0.00,meteohub,2013-07-06 04:52:00,
2013-07-06 01:02:00,78.1,73.9,30.36,WSW,247,0.0,2.0,87,0.00,,,0.00,meteohub,2013-07-06 05:02:00,
2013-07-06 01:12:00,78.1,73.9,30.36,WSW,247,0.0,2.0,87,0.00,,,0.00,meteohub,2013-07-06 05:12:00,
2013-07-06 01:22:00,77.0,72.9,30.36,WSW,247,0.0,2.0,87,0.00,,,0.00,meteohub,2013-07-06 05:22:00,
2013-07-06 01:32:00,77.0,73.2,30.36,WSW,247,0.0,2.0,88,0.00,,,0.00,meteohub,2013-07-06 05:32:00,
2013-07-06 01:42:00,77.0,73.2,30.35,WSW,247,1.0,2.0,88,0.00,,,0.00,meteohub,2013-07-06 05:42:00,
2013-07-06 01:52:00,77.0,73.2,30.35,WSW,247,0.0,2.0,88,0.00,,,0.00,meteohub,2013-07-06 05:52:00,
2013-07-06 02:02:00,77.0,73.2,30.35,WSW,247,0.0,2.0,88,0.00,,,0.00,meteohub,2013-07-06 06:02:00,
2013-07-06 02:12:00,77.0,73.2,30.35,WSW,247,0.0,2.0,88,0.00,,,0.00,meteohub,2013-07-06 06:12:00,
2013-07-06 02:22:00,75.9,72.1,30.35,WSW,247,1.0,2.0,88,0.00,,,0.00,meteohub,2013-07-06 06:22:00,
2013-07-06 02:32:00,75.9,72.1,30.34,WSW,247,0.0,2.0,88,0.00,,,0.00,meteohub,2013-07-06 06:32:00,
2013-07-06 02:42:00,75.9,72.5,30.34,WSW,247,0.0,2.0,89,0.00,,,0.00,meteohub,2013-07-06 06:42:00,
2013-07-06 02:52:00,75.9,72.5,30.34,WSW,247,0.0,2.0,89,0.00,,,0.00,meteohub,2013-07-06 06:52:00,
2013-07-06 03:02:00,75.9,72.9,30.34,WSW,247,0.0,1.0,90,0.00,,,0.00,meteohub,2013-07-06 07:02:00,
2013-07-06 03:12:00,75.9,72.9,30.34,WSW,247,0.0,1.0,90,0.00,,,0.00,meteohub,2013-07-06 07:12:00,
2013-07-06 03:22:00,75.9,72.9,30.34,WSW,247,0.0,1.0,90,0.00,,,0.00,meteohub,2013-07-06 07:22:00,
2013-07-06 03:32:00,75.0,72.1,30.34,WSW,247,0.0,1.0,91,0.00,,,0.00,meteohub,2013-07-06 07:32:00,
2013-07-06 03:42:00,75.0,72.1,30.34,WSW,247,1.0,1.0,91,0.00,,,0.00,meteohub,2013-07-06 07:42:00,
2013-07-06 03:52:00,75.0,72.1,30.34,WSW,247,0.0,2.0,91,0.00,,,0.00,meteohub,2013-07-06 07:52:00,
2013-07-06 04:02:00,75.0,72.5,30.34,WSW,247,0.0,2.0,92,0.00,,,0.00,meteohub,2013-07-06 08:02:00,
2013-07-06 04:12:00,75.0,72.5,30.34,WSW,247,0.0,1.0,92,0.00,,,0.00,meteohub,2013-07-06 08:12:00,
2013-07-06 04:22:00,75.0,72.9,30.34,WSW,247,0.0,1.0,93,0.00,,,0.00,meteohub,2013-07-06 08:22:00,
2013-07-06 04:32:00,75.0,72.9,30.34,WSW,247,0.0,1.0,93,0.00,,,0.00,meteohub,2013-07-06 08:32:00,
2013-07-06 04:42:00,73.9,72.1,30.34,WSW,247,0.0,1.0,94,0.00,,,0.00,meteohub,2013-07-06 08:42:00,
2013-07-06 04:52:00,73.9,72.5,30.34,WSW,247,0.0,2.0,95,0.00,,,0.00,meteohub,2013-07-06 08:52:00,
2013-07-06 05:02:00,73.9,72.5,30.34,WSW,247,0.0,2.0,95,0.00,,,0.00,meteohub,2013-07-06 09:02:00,
2013-07-06 05:12:00,73.9,72.5,30.34,WSW,247,0.0,2.0,95,0.00,,,0.00,meteohub,2013-07-06 09:12:00,
2013-07-06 05:22:00,73.9,72.7,30.34,WSW,247,0.0,1.0,96,0.00,,,0.00,meteohub,2013-07-06 09:22:00,
2013-07-06 05:32:00,73.9,72.7,30.34,SW,225,1.0,2.0,96,0.00,,,0.00,meteohub,2013-07-06 09:32:00,
2013-07-06 05:42:00,73.9,72.7,30.34,SW,225,1.0,2.0,96,0.00,,,0.00,meteohub,2013-07-06 09:42:00,
2013-07-06 05:52:00,73.9,72.7,30.34,SW,225,1.0,2.0,96,0.00,,,0.00,meteohub,2013-07-06 09:52:00,
2013-07-06 06:02:00,73.9,72.7,30.35,SW,225,1.0,2.0,96,0.00,,,0.00,meteohub,2013-07-06 10:02:00,
2013-07-06 06:12:00,73.9,73.0,30.35,WNW,292,0.0,3.0,97,0.00,,,0.00,meteohub,2013-07-06 10:12:00,
2013-07-06 06:22:00,73.9,73.0,30.35,WSW,247,0.0,2.0,97,0.00,,,0.00,meteohub,2013-07-06 10:22:00,
2013-07-06 06:32:00,73.9,73.0,30.35,SW,225,0.0,2.0,97,0.00,,,0.00,meteohub,2013-07-06 10:32:00,
2013-07-06 06:42:00,73.9,73.4,30.35,SW,225,0.0,2.0,98,0.00,,,0.00,meteohub,2013-07-06 10:42:00,
2013-07-06 06:52:00,73.9,73.0,30.36,SW,225,1.0,2.0,97,0.00,,,0.00,meteohub,2013-07-06 10:52:00,
2013-07-06 07:02:00,73.9,73.0,30.36,WSW,247,0.0,2.0,97,0.00,,,0.00,meteohub,2013-07-06 11:02:00,
2013-07-06 07:12:00,75.0,73.8,30.36,South,180,0.0,2.0,96,0.00,,,0.00,meteohub,2013-07-06 11:12:00,
2013-07-06 07:22:00,75.0,73.4,30.36,SW,225,0.0,4.0,95,0.00,,,0.00,meteohub,2013-07-06 11:22:00,
2013-07-06 07:32:00,75.0,73.2,30.37,SSW,202,1.0,5.0,94,0.00,,,0.00,meteohub,2013-07-06 11:32:00,
2013-07-06 07:42:00,75.9,73.4,30.37,SW,225,1.0,5.0,92,0.00,,,0.00,meteohub,2013-07-06 11:42:00,
2013-07-06 07:52:00,75.9,73.0,30.38,SW,225,2.0,4.0,91,0.00,,,0.00,meteohub,2013-07-06 11:52:00,
2013-07-06 08:02:00,77.0,73.6,30.38,SW,225,1.0,2.0,89,0.00,,,0.00,meteohub,2013-07-06 12:02:00,
2013-07-06 08:12:00,78.1,74.3,30.38,SW,225,0.0,2.0,88,0.00,,,0.00,meteohub,2013-07-06 12:12:00,
2013-07-06 08:22:00,79.0,73.8,30.39,WSW,247,0.0,4.0,84,0.00,,,0.00,meteohub,2013-07-06 12:22:00,
2013-07-06 08:32:00,80.1,73.4,30.40,SW,225,0.0,2.0,80,0.00,,,0.00,meteohub,2013-07-06 12:32:00,
2013-07-06 08:42:00,81.0,72.7,30.40,SW,225,0.0,4.0,76,0.00,,,0.00,meteohub,2013-07-06 12:42:00,
2013-07-06 08:52:00,82.0,72.9,30.41,West,270,0.0,3.0,74,0.00,,,0.00,meteohub,2013-07-06 12:52:00,
2013-07-06 09:02:00,82.9,73.4,30.41,West,270,0.0,4.0,73,0.00,,,0.00,meteohub,2013-07-06 13:02:00,
2013-07-06 09:12:00,84.0,72.7,30.42,South,180,0.0,2.0,69,0.00,,,0.00,meteohub,2013-07-06 13:12:00,
2013-07-06 09:22:00,84.0,72.0,30.42,South,180,2.0,3.0,67,0.00,,,0.00,meteohub,2013-07-06 13:22:00,
2013-07-06 09:32:00,84.9,72.3,30.42,SW,225,0.0,3.0,66,0.00,,,0.00,meteohub,2013-07-06 13:32:00,
2013-07-06 09:42:00,86.0,72.9,30.42,South,180,1.0,3.0,65,0.00,,,0.00,meteohub,2013-07-06 13:42:00,
2013-07-06 09:52:00,87.1,73.4,30.42,East,90,0.0,2.0,64,0.00,,,0.00,meteohub,2013-07-06 13:52:00,
2013-07-06 10:02:00,87.1,71.4,30.43,North,0,1.0,2.0,60,0.00,,,0.00,meteohub,2013-07-06 14:02:00,
2013-07-06 10:12:00,87.1,71.4,30.43,SW,225,2.0,3.0,60,0.00,,,0.00,meteohub,2013-07-06 14:12:00,
2013-07-06 10:22:00,87.1,72.0,30.43,SW,225,1.0,3.0,61,0.00,,,0.00,meteohub,2013-07-06 14:22:00,
2013-07-06 10:32:00,88.0,71.8,30.43,West,270,0.0,4.0,59,0.00,,,0.00,meteohub,2013-07-06 14:32:00,
2013-07-06 10:42:00,88.0,70.9,30.43,SW,225,0.0,4.0,57,0.00,,,0.00,meteohub,2013-07-06 14:42:00,
2013-07-06 10:52:00,90.0,71.1,30.44,East,90,1.0,4.0,54,0.00,,,0.00,meteohub,2013-07-06 14:52:00,
2013-07-06 11:02:00,89.1,71.2,30.43,East,90,2.0,5.0,56,0.00,,,0.00,meteohub,2013-07-06 15:02:00,
2013-07-06 11:12:00,88.0,71.4,30.42,NW,315,0.0,4.0,58,0.00,,,0.00,meteohub,2013-07-06 15:12:00,
2013-07-06 11:22:00,88.0,69.8,30.42,East,90,1.0,4.0,55,0.00,,,0.00,meteohub,2013-07-06 15:22:00,
2013-07-06 11:32:00,89.1,70.2,30.42,SW,225,0.0,3.0,54,0.00,,,0.00,meteohub,2013-07-06 15:32:00,
2013-07-06 11:42:00,90.0,68.9,30.42,SW,225,1.0,3.0,50,0.00,,,0.00,meteohub,2013-07-06 15:42:00,
2013-07-06 11:52:00,90.0,68.9,30.42,SW,225,1.0,5.0,50,0.00,,,0.00,meteohub,2013-07-06 15:52:00,
2013-07-06 12:02:00,90.0,67.6,30.42,SW,225,0.0,5.0,48,0.00,,,0.00,meteohub,2013-07-06 16:02:00,
2013-07-06 12:12:00,91.0,68.5,30.42,SE,135,0.0,3.0,48,0.00,,,0.00,meteohub,2013-07-06 16:12:00,
2013-07-06 12:22:00,91.9,70.7,30.42,East,90,1.0,4.0,50,0.00,,,0.00,meteohub,2013-07-06 16:22:00,
2013-07-06 12:32:00,91.9,69.4,30.42,SW,225,1.0,5.0,48,0.00,,,0.00,meteohub,2013-07-06 16:32:00,
2013-07-06 12:45:00,91.0,69.8,30.42,SSW,202,2.0,5.0,50,0.00,,,0.00,meteohub,2013-07-06 16:45:00,
2013-07-06 12:52:00,91.0,68.5,30.41,ESE,112,0.0,6.0,48,0.00,,,0.00,meteohub,2013-07-06 16:52:00,
2013-07-06 13:05:00,91.9,69.4,30.41,North,0,1.0,4.0,48,0.00,,,0.00,meteohub,2013-07-06 17:05:00,
2013-07-06 13:12:00,91.9,70.0,30.40,West,270,0.0,4.0,49,0.00,,,0.00,meteohub,2013-07-06 17:12:00,
2013-07-06 13:22:00,93.0,71.1,30.40,West,270,4.0,6.0,49,0.00,,,0.00,meteohub,2013-07-06 17:22:00,
2013-07-06 13:32:00,93.0,71.1,30.40,NW,315,0.0,6.0,49,0.00,,,0.00,meteohub,2013-07-06 17:32:00,
2013-07-06 13:42:00,93.9,71.2,30.40,SE,135,1.0,5.0,48,0.00,,,0.00,meteohub,2013-07-06 17:42:00,
2013-07-06 13:58:00,93.0,70.3,30.40,SSW,202,1.0,3.0,48,0.00,,,0.00,meteohub,2013-07-06 17:58:00,
2013-07-06 14:05:00,93.9,70.7,30.40,SW,225,0.0,6.0,47,0.00,,,0.00,meteohub,2013-07-06 18:05:00,
2013-07-06 14:18:00,93.0,68.5,30.40,South,180,1.0,3.0,45,0.00,,,0.00,meteohub,2013-07-06 18:18:00,
2013-07-06 14:32:00,93.9,70.0,30.39,East,90,1.0,6.0,46,0.00,,,0.00,meteohub,2013-07-06 18:32:00,
2013-07-06 14:42:00,93.9,69.3,30.39,SSW,202,0.0,7.0,45,0.00,,,0.00,meteohub,2013-07-06 18:42:00,
2013-07-06 14:52:00,93.9,69.3,30.38,South,180,6.0,7.0,45,0.00,,,0.00,meteohub,2013-07-06 18:52:00,
2013-07-06 15:02:00,93.9,68.0,30.38,SW,225,1.0,6.0,43,0.00,,,0.00,meteohub,2013-07-06 19:02:00,
2013-07-06 15:13:00,93.9,69.3,30.38,SW,225,2.0,4.0,45,0.00,,,0.00,meteohub,2013-07-06 19:13:00,
2013-07-06 15:28:00,93.9,70.0,30.38,ESE,112,2.0,6.0,46,0.00,,,0.00,meteohub,2013-07-06 19:28:00,
2013-07-06 15:35:00,93.9,70.0,30.38,South,180,1.0,4.0,46,0.00,,,0.00,meteohub,2013-07-06 19:35:00,
2013-07-06 15:42:00,93.9,70.0,30.38,SW,225,1.0,4.0,46,0.00,,,0.00,meteohub,2013-07-06 19:42:00,
2013-07-06 15:52:00,95.0,70.3,30.37,SW,225,0.0,4.0,45,0.00,,,0.00,meteohub,2013-07-06 19:52:00,
2013-07-06 16:02:00,95.0,69.6,30.37,SE,135,0.0,4.0,44,0.00,,,0.00,meteohub,2013-07-06 20:02:00,
2013-07-06 16:12:00,95.0,70.3,30.37,SE,135,1.0,4.0,45,0.00,,,0.00,meteohub,2013-07-06 20:12:00,
2013-07-06 16:22:00,93.9,70.0,30.37,SW,225,2.0,6.0,46,0.00,,,0.00,meteohub,2013-07-06 20:22:00,
2013-07-06 16:35:00,93.9,70.7,30.36,South,180,2.0,7.0,47,0.00,,,0.00,meteohub,2013-07-06 20:35:00,
2013-07-06 16:42:00,93.9,70.7,30.36,SSW,202,1.0,5.0,47,0.00,,,0.00,meteohub,2013-07-06 20:42:00,
2013-07-06 16:52:00,93.0,70.3,30.35,SW,225,1.0,4.0,48,0.00,,,0.00,meteohub,2013-07-06 20:52:00,
2013-07-06 17:02:00,93.9,70.7,30.35,SW,225,2.0,3.0,47,0.00,,,0.00,meteohub,2013-07-06 21:02:00,
2013-07-06 17:15:00,95.0,70.3,30.35,SSW,202,1.0,4.0,45,0.00,,,0.00,meteohub,2013-07-06 21:15:00,
2013-07-06 17:31:00,95.0,70.3,30.35,SW,225,0.0,3.0,45,0.00,,,0.00,meteohub,2013-07-06 21:31:00,
2013-07-06 17:42:00,93.9,70.7,30.34,SW,225,2.0,6.0,47,0.00,,,0.00,meteohub,2013-07-06 21:42:00,
2013-07-06 17:52:00,91.9,70.0,30.34,ESE,112,1.0,6.0,49,0.00,,,0.00,meteohub,2013-07-06 21:52:00,
2013-07-06 18:09:00,91.9,69.4,30.34,SE,135,1.0,6.0,48,0.00,,,0.00,meteohub,2013-07-06 22:09:00,
2013-07-06 18:25:00,93.0,67.8,30.33,SW,225,2.0,2.0,44,0.00,,,0.00,meteohub,2013-07-06 22:25:00,
2013-07-06 18:32:00,91.9,68.9,30.34,SW,225,2.0,7.0,47,0.00,,,0.00,meteohub,2013-07-06 22:32:00,
2013-07-06 18:46:00,91.9,68.9,30.33,SW,225,2.0,7.0,47,0.00,,,0.00,meteohub,2013-07-06 22:46:00,
2013-07-06 18:52:00,91.0,67.5,30.33,SW,225,1.0,6.0,46,0.00,,,0.00,meteohub,2013-07-06 22:52:00,
2013-07-06 19:02:00,90.0,67.6,30.33,South,180,0.0,6.0,48,0.00,,,0.00,meteohub,2013-07-06 23:02:00,
2013-07-06 19:12:00,89.1,68.0,30.33,SW,225,1.0,6.0,50,0.00,,,0.00,meteohub,2013-07-06 23:12:00,
2013-07-06 19:22:00,87.1,67.8,30.32,East,90,0.0,8.0,53,0.00,,,0.00,meteohub,2013-07-06 23:22:00,
2013-07-06 19:32:00,86.0,68.5,30.32,SSW,202,1.0,8.0,56,0.00,,,0.00,meteohub,2013-07-06 23:32:00,
2013-07-06 19:42:00,84.9,68.0,30.31,SE,135,2.0,7.0,57,0.00,,,0.00,meteohub,2013-07-06 23:42:00,
2013-07-06 19:52:00,84.9,68.5,30.31,SW,225,2.0,4.0,58,0.00,,,0.00,meteohub,2013-07-06 23:52:00,
2013-07-06 20:02:00,84.0,68.2,30.31,SW,225,2.0,3.0,59,0.00,,,0.00,meteohub,2013-07-07 00:02:00,
2013-07-06 20:12:00,84.0,68.2,30.30,South,180,1.0,4.0,59,0.00,,,0.00,meteohub,2013-07-07 00:12:00,
2013-07-06 20:23:00,82.9,67.6,30.31,SW,225,2.0,3.0,60,0.00,,,0.00,meteohub,2013-07-07 00:23:00,
2013-07-06 20:32:00,82.9,68.5,30.30,SW,225,2.0,4.0,62,0.00,,,0.00,meteohub,2013-07-07 00:32:00,
2013-07-06 20:45:00,82.9,68.5,30.30,SW,225,1.0,3.0,62,0.00,,,0.00,meteohub,2013-07-07 00:45:00,
2013-07-06 20:52:00,82.0,68.2,30.30,SW,225,2.0,2.0,63,0.00,,,0.00,meteohub,2013-07-07 00:52:00,
2013-07-06 21:08:00,82.0,68.7,30.30,SW,225,0.0,3.0,64,0.00,,,0.00,meteohub,2013-07-07 01:08:00,
2013-07-06 21:25:00,81.0,68.0,30.30,SW,225,1.0,3.0,65,0.00,,,0.00,meteohub,2013-07-07 01:25:00,
2013-07-06 21:33:00,81.0,68.0,30.31,SW,225,2.0,4.0,65,0.00,,,0.00,meteohub,2013-07-07 01:33:00,
2013-07-06 21:42:00,81.0,68.5,30.31,SW,225,1.0,4.0,66,0.00,,,0.00,meteohub,2013-07-07 01:42:00,
2013-07-06 21:53:00,81.0,68.9,30.31,SW,225,2.0,2.0,67,0.00,,,0.00,meteohub,2013-07-07 01:53:00,
2013-07-06 22:02:00,80.1,68.2,30.32,SW,225,1.0,2.0,67,0.00,,,0.00,meteohub,2013-07-07 02:02:00,
2013-07-06 22:12:00,80.1,68.5,30.32,SW,225,1.0,2.0,68,0.00,,,0.00,meteohub,2013-07-07 02:12:00,
2013-07-06 22:22:00,80.1,68.9,30.32,SW,225,1.0,2.0,69,0.00,,,0.00,meteohub,2013-07-07 02:22:00,
2013-07-06 22:32:00,80.1,68.9,30.32,SW,225,1.0,2.0,69,0.00,,,0.00,meteohub,2013-07-07 02:32:00,
2013-07-06 22:42:00,80.1,68.9,30.32,SW,225,2.0,4.0,69,0.00,,,0.00,meteohub,2013-07-07 02:42:00,
2013-07-06 22:52:00,79.0,68.4,30.31,SW,225,2.0,4.0,70,0.00,,,0.00,meteohub,2013-07-07 02:52:00,
2013-07-06 23:02:00,79.0,68.4,30.31,SW,225,1.0,4.0,70,0.00,,,0.00,meteohub,2013-07-07 03:02:00,
2013-07-06 23:12:00,79.0,68.7,30.31,South,180,1.0,2.0,71,0.00,,,0.00,meteohub,2013-07-07 03:12:00,
2013-07-06 23:22:00,79.0,69.3,30.31,West,270,0.0,2.0,72,0.00,,,0.00,meteohub,2013-07-07 03:22:00,
2013-07-06 23:32:00,79.0,69.6,30.31,SW,225,0.0,2.0,73,0.00,,,0.00,meteohub,2013-07-07 03:32:00,
2013-07-06 23:42:00,79.0,69.6,30.32,SW,225,2.0,4.0,73,0.00,,,0.00,meteohub,2013-07-07 03:42:00,
2013-07-06 23:52:00,78.1,69.1,30.32,SW,225,0.0,4.0,74,0.00,,,0.00,meteohub,2013-07-07 03:52:00,